Burleson, TX

2:25 PM CST on January 23, 2017 (GMT -0600)
Fort Worth Spinks

Weather History for KFWS - January, 2013

Change the Weather History Date:

Saturday, January 26, 2013

  Actual Average (KNFW) Record (KNFW)
Temperature  
Mean Temperature 50 °F -  
Max Temperature 55 °F 56 °F 79 °F (2014)
Min Temperature 44 °F 36 °F 36 °F (2015)
Degree Days  
Heating Degree Days 16    
Moisture  
Dew Point 44 °F    
Average Humidity 84    
Maximum Humidity 100    
Minimum Humidity 71    
Precipitation  
Precipitation 0.00 in - - ()
Sea Level Pressure  
Sea Level Pressure 30.16 in    
Wind  
Wind Speed 4 mph (ENE)    
Max Wind Speed 8 mph    
Max Gust Speed -    
Visibility 4 miles    
Events Fog , Rain    
Averages and records for this station are not official NWS values.
T = Trace of Precipitation, MM = Missing Value Source: NWS Daily Summary

Daily Weather History Graph

Daily Weather History Graph

Search for Another Location

Airport or City:

Trip Planner

Search our weather history database for the weather conditions in past years. The results will help you decide how hot, cold, wet, or windy it might be!

Date:

Astronomy

Jan. 26, 2013 Rise Set
Actual Time 7:27 AM CST 5:56 PM CST
Civil Twilight 7:01 AM CST 6:22 PM CST
Nautical Twilight 6:31 AM CST 6:52 PM CST
Astronomical Twilight 6:02 AM CST 7:21 PM CST
Moon 5:50 PM CST (1/26) 6:47 AM CST (1/26)
Length of Visible Light 11h 21m
Length of Day
10h 29m
Full, 100% of the Moon is Illuminated
Jan 26
Full
Jan 26
Full
Feb 3
Last Quarter
Feb 10
New
Feb 17
First Quarter

Hourly Weather History & Observations

Time (CST) Temp. Windchill Dew Point Humidity Pressure Visibility Wind Dir Wind Speed Gust Speed Precip Events Conditions
12:15 AM 46.4 °F 43.5 °F 37.4 °F 71% 30.21 in 10.0 mi North 5.8 mph - N/A   Overcast
12:35 AM 46.4 °F 45.2 °F 37.4 °F 71% 30.21 in 10.0 mi North 3.5 mph - N/A   Overcast
12:55 AM 46.4 °F 44.3 °F 37.4 °F 71% 30.20 in 10.0 mi North 4.6 mph - N/A   Overcast
1:15 AM 46.4 °F 45.2 °F 37.4 °F 71% 30.20 in 10.0 mi North 3.5 mph - N/A   Overcast
1:35 AM 46.4 °F 44.3 °F 37.4 °F 71% 30.18 in 10.0 mi NNE 4.6 mph - N/A   Overcast
1:55 AM 46.4 °F 42.9 °F 37.4 °F 71% 30.20 in 10.0 mi NNW 6.9 mph - N/A   Overcast
2:15 AM 46.4 °F 44.3 °F 37.4 °F 71% 30.20 in 10.0 mi North 4.6 mph - N/A   Overcast
2:35 AM 46.4 °F 45.2 °F 37.4 °F 71% 30.20 in 7.0 mi North 3.5 mph - N/A   Overcast
2:55 AM 46.4 °F 42.9 °F 37.4 °F 71% 30.20 in 7.0 mi North 6.9 mph - N/A   Overcast
3:15 AM 46.4 °F 44.3 °F 37.4 °F 71% 30.19 in 7.0 mi North 4.6 mph - N/A   Overcast
3:35 AM 46.4 °F 45.2 °F 37.4 °F 71% 30.18 in 7.0 mi North 3.5 mph - N/A   Overcast
3:55 AM 46.4 °F 45.2 °F 37.4 °F 71% 30.18 in 7.0 mi North 3.5 mph - N/A   Overcast
4:15 AM 46.4 °F - 37.4 °F 71% 30.17 in 7.0 mi Calm Calm - N/A   Overcast
4:35 AM 46.4 °F 45.2 °F 37.4 °F 71% 30.17 in 7.0 mi NNW 3.5 mph - N/A   Overcast
4:55 AM 46.4 °F - 39.2 °F 76% 30.17 in 7.0 mi Calm Calm - N/A   Overcast
5:15 AM 44.6 °F 43.1 °F 39.2 °F 81% 30.18 in 7.0 mi North 3.5 mph - N/A   Overcast
6:50 AM 44.6 °F - 41.0 °F 87% 30.20 in 5.0 mi Calm Calm - N/A   Overcast
7:48 AM 44.6 °F - 42.8 °F 93% 30.20 in 3.0 mi Calm Calm - N/A   Overcast
8:50 AM 44.6 °F - 42.8 °F 93% 30.22 in 2.0 mi Calm Calm - N/A   Overcast
9:50 AM 46.4 °F - 42.8 °F 87% 30.22 in 2.5 mi Calm Calm - N/A   Overcast
10:48 AM 48.2 °F - 44.6 °F 87% 30.23 in 3.0 mi Calm Calm - N/A   Overcast
11:46 AM 51.8 °F - 44.6 °F 76% 30.22 in 4.0 mi Calm Calm - N/A   Haze
12:51 PM 53.6 °F - 46.4 °F 77% 30.19 in 3.0 mi ENE 5.8 mph - N/A   Haze
1:50 PM 55.4 °F - 46.4 °F 72% 30.15 in 3.0 mi East 4.6 mph - N/A   Haze
2:51 PM 55.4 °F - 46.4 °F 72% 30.14 in 4.0 mi ESE 4.6 mph - N/A   Haze
3:52 PM 55.4 °F - 46.4 °F 72% 30.13 in 3.0 mi East 8.1 mph - N/A   Haze
4:49 PM 53.6 °F - 48.2 °F 82% 30.13 in 3.0 mi East 5.8 mph - N/A   Haze
5:48 PM 53.6 °F - 48.2 °F 82% 30.13 in 4.0 mi East 5.8 mph - N/A   Haze
6:50 PM 51.8 °F - 48.2 °F 88% 30.14 in 3.0 mi East 6.9 mph - N/A   Overcast
6:55 PM 51.8 °F - 48.2 °F 88% 30.14 in 4.0 mi ESE 4.6 mph - N/A   Overcast
7:15 PM 51.8 °F - 48.2 °F 88% 30.14 in 3.0 mi ESE 3.5 mph - N/A   Overcast
7:35 PM 51.8 °F - 50.0 °F 94% 30.14 in 2.5 mi East 3.5 mph - N/A   Overcast
7:55 PM 50.0 °F - 50.0 °F 100% 30.13 in 3.0 mi East 3.5 mph - N/A   Overcast
8:15 PM 50.0 °F - 50.0 °F 100% 30.14 in 3.0 mi East 4.6 mph - N/A   Overcast
8:35 PM 50.0 °F - 50.0 °F 100% 30.13 in 3.0 mi East 5.8 mph - N/A   Overcast
8:55 PM 51.8 °F - 50.0 °F 94% 30.13 in 3.0 mi ESE 4.6 mph - N/A   Overcast
9:15 PM 50.0 °F - 50.0 °F 100% 30.12 in 1.5 mi ESE 4.6 mph - N/A   Overcast
9:35 PM 50.0 °F - 50.0 °F 100% 30.12 in 0.5 mi SE 6.9 mph - N/A Fog Fog
9:55 PM 50.0 °F - 50.0 °F 100% 30.12 in 0.5 mi ESE 3.5 mph - N/A Fog Fog
10:15 PM 50.0 °F - 50.0 °F 100% 30.12 in 0.5 mi SE 5.8 mph - N/A Fog Fog
10:35 PM 50.0 °F - 50.0 °F 100% 30.12 in 0.5 mi SE 5.8 mph - N/A Fog Fog
10:55 PM 50.0 °F - 50.0 °F 100% 30.11 in 0.5 mi SE 4.6 mph - N/A Fog Fog
11:15 PM 50.0 °F - 50.0 °F 100% 30.12 in 0.5 mi SE 6.9 mph - N/A Fog Fog
11:35 PM 50.0 °F - 50.0 °F 100% 30.12 in 1.0 mi SE 8.1 mph - N/A   Overcast
11:55 PM 50.0 °F - 50.0 °F 100% 30.10 in 0.5 mi SE 8.1 mph - N/A Rain Light Rain